Skip Page Navigation
NASA JPL Caltech
NASA Logo - Jet Propulsion Laboratory + View the NASA Portal
+ Center for Near-Earth Object Studies
JPL Home Earth Solar System Stars & Galaxies Technology
JPL Solar System Dynamics
BODIES ORBITS EPHEMERIDES TOOLS PHYSICAL DATA DISCOVERY FAQ SITE MAP
JPL Small-Body Database Browser
Search: [ help ]  
(2020 AJ1)
Classification: Apollo [NEO]          SPK-ID: 3973548
Ephemeris | Orbit Diagram | Orbital Elements | Mission Design | Physical Parameters | Close-Approach Data ]

[ hide orbit diagram ]

For accurate long-term ephemerides, please instead use our Horizons system.This orbit viewer was implemented using two-body methods, and hence should not be used for determining accurate long-term trajectories (over several years or decades) or planetary encounter circumstances.


[ revert to old Java-based viewer ]

Orbital Elements at Epoch 2458853.5 (2020-Jan-05.0) TDB
Reference: JPL 4 (heliocentric ecliptic J2000)
 Element Value Uncertainty (1-sigma)   Units 
e .620111846508467 0.00086102  
a 1.439031822361802 0.0025707 au
q .5466711418125808 0.00026247 au
i 22.92310490485217 0.036409 deg
node 102.1595241791901 0.00021221 deg
peri 104.3337277121664 0.017451 deg
M 328.8584311605696 0.10613 deg
tp 2458908.043375384892
(2020-Feb-28.54337538)
0.039733 TDB
period 630.5274869035878
1.73
1.6896
0.004626
d
yr
n .5709505255161803 0.0015299 deg/d
Q 2.331392502911024 0.0041648 au
  Orbit Determination Parameters
   # obs. used (total)      112  
   data-arc span      3 days  
   first obs. used      2020-01-04  
   last obs. used      2020-01-07  
   planetary ephem.      DE431  
   SB-pert. ephem.      SB431-N16  
   condition code      8  
   norm. resid. RMS      .28215  
   source      ORB  
   producer      Otto Matic  
   solution date      2020-Jan-08 06:23:49  

Additional Information
 Earth MOID = .0299987 au 
 Jupiter MOID = 2.90503 au 
 T_jup = 4.376 
[ hide covariance matrix ]
Orbit Covariance (6×6)
  e q tp node peri i
e 7.413617831805502E-7 -2.259849169867949E-7 -3.421060858591693E-5 -1.823706005077192E-7 -1.502407158361364E-5 3.13452072480542E-5
q -2.259849169867949E-7 6.888855807290791E-8 1.042810721980577E-5 5.557908663629161E-8 4.579234661729009E-6 -9.555347712221557E-6
tp -3.421060858591693E-5 1.042810721980577E-5 .00157867563331223 8.41634711355284E-6 .0006933135568832523 -.001446407575436861
node -1.823706005077192E-7 5.557908663629161E-8 8.41634711355284E-6 4.503362701142839E-8 3.697844604364091E-6 -7.704290101790898E-6
peri -1.502407158361364E-5 4.579234661729009E-6 .0006933135568832523 3.697844604364091E-6 .0003045447869473799 -.0006351265880519054
i 3.13452072480542E-5 -9.555347712221557E-6 -.001446407575436861 -7.704290101790898E-6 -.0006351265880519054 .001325593941664576

Ephemeris | Orbit Diagram | Orbital Elements | Mission Design | Physical Parameters | Close-Approach Data ]

Physical Parameter Table
Parameter Symbol Value Units Sigma Reference Notes
absolute magnitude H 23.3   .50375 E2020A81 autocmod 2.8

[ show close-approach data ]
Ephemeris | Orbit Diagram | Orbital Elements | Mission Design | Physical Parameters | Close-Approach Data ]
ABOUT SSD CREDITS/AWARDS PRIVACY/COPYRIGHT GLOSSARY LINKS
FirstGov 2020-Nov-24 19:33 UT
(server date/time)  
NASA Home Page
Site Manager:   Ryan S. Park
Webmaster  Alan B. Chamberlin